Starlink 6147

operational
NORAD ID: 57120 Int'l Des: 2023-090 Owner: SPXS Country: US Constellation: starlink
LEOCIRCULAR

Über Starlink 6147

Beschreibung wird geladen...

Live-Position

3D-Globus wird geladen...

Nächste Überflüge

Höhenverlauf

Altitude vs Time

uPlot chart will show altitude changes over time

Zweizeiliger Elementsatz

1 57120U 23090V 25305.58150842 -.00000920 00000-0 -53055-4 0 9992
2 57120 43.0033 250.6639 0001012 266.1534 93.9193 15.02531261131142
Epoch: 1. Nov. 2025 • Age: 25 hours

Aktueller Status

Höhe 571.7 km
Geschwindigkeit 7.58 km/s
Subsatellitenpunkt -42.95°S, 120.07°W
Startdatum 23. Juni 2023
Alter 2.3 years
Typ internet

Technische Details

Klassifizierung Payload
Masse 305.00 kg
Trockenmasse 290.00 kg
Gesamtmasse 305.00 kg
Länge 0.20 m
Durchmesser 2.80 m
Spannweite 9.00 m
Form Box + pan
Hersteller SPXS
Bus-Typ Starlink
Phasenstatus In Orbit
Besitzer/Staat SPXS/US

Große Konstellationen

Loading constellations...